{"data":{"norad_id":48050,"epoch":"2026-05-25T00:25:04.243872Z","epoch_age_seconds":69491,"freshness":"FRESH","line1":"1 48050U 21025J   26145.01741023  .00000238  00000+0  61386-3 0  9992","line2":"2 48050  87.8946 324.7553 0001838  91.7054 268.4286 13.13895618250565","mean_motion":13.13895618,"eccentricity":0.0001838,"inclination_deg":87.8946,"raan_deg":324.7553,"arg_perigee_deg":91.7054,"mean_anomaly_deg":268.4286,"bstar":0.00061386,"rev_number":25056,"period_min":109.59774736078,"perigee_km":1206.7322933408,"apogee_km":1209.521003858,"semimajor_km":7586.2636485994,"source":"CELESTRAK","updated_at":"2026-05-25T13:38:22.389080Z"}}